Tracking 20942 objects as of 15-Jul-2020
HD Live streaming from Space Station
objects crossing your sky now

ARIANE 2 DEB

Track ARIANE 2 DEB now!


NORAD ID: 27030
Int'l Code: 1989-006K
Perigee: 483.5 km
Apogee: 34,737.3 km
Inclination: 8.2 °
Period: 616.0 minutes
Semi major axis: 23981 km
RCS: 0.3251 m2 (medium)
Launch date: January 27, 1989
Source: France (FR)
Launch site: FRENCH GUIANA (FRGUI)

Note: This is SATELLITE DEBRIS
aabbcc
Your satellite tracking list
Your tracking list is empty




NASA's NSSDC Master Catalog

Two Line Element Set (TLE):
1 27030U 89006K   20196.61608799 -.00000083 +00000-0 +37544-3 0  9997
2 27030 008.1791 112.5688 7141755 033.4766 355.7483 02.33771522159046
Source of the keplerian elements: AFSPC